KBVYKIWI

Guest
Details From KBVY - BEVERLY MUNI
To KIWI - Wiscasset
Flight Number -
Tags generated
Created
Modified
Stats Distance 98 nm / 182 km
Max Altitude 8,400 ft / 2,560 m
Waypoints 3
Social Downloads 0
Likes 0
Share VATSIM

Download

Looking for another format? Having issues loading an existing format? Contact us
Advertisement - Login to hide

Notes

Basic altitude profile: - Ascent Rate: 1400ft/min - Ascent Speed: 122kts - Cruise Altitude: 5000ft - Cruise Speed: 168kts - Descent Rate: 500ft/min - Descent Speed: 165kts Options: - Use NATs: no - Use PACOTS: no - Use low airways: yes - Use high airways: no

Route

KBVY SILVE KIWI

ID Type Via Altitude Latitude Longitude Leg Dist Tot Dist Heading (true) Name
O KBVY APT - 0 ft / 0 m 42.58427˚ -70.91652˚ - 0 nm - BEVERLY MUNI
SILVE FIX - 8,400 ft / 2,560 m 42.91208˚ -70.61353˚ 23 nm 23 nm 34° / 34° -
O KIWI APT - 0 ft / 0 m 43.96128˚ -69.71252˚ 74 nm 98 nm 32° / 32° Wiscasset

Altitude Profile

Advertisement - Login to hide

KBVY

Details ICAO KBVY (BVY)
Name BEVERLY MUNI
Region United States
Timezone America/New_York (UTC-4.0)
Stats Elevation 107 ft / 33 m (AMSL)
Location 42.584275° -70.916515°
Runways 2
Magnetic Variation 14.739° W

METAR

KBVY 210653Z AUTO 28003KT 10SM CLR 12/11 A3005 RMK AO2 SLP171 T01170106

Decode

TAF

Not found

Departure Runways

ID Width Length Bearing (true) Bearing (mag) Surface Threshold Offset Overrun Length
09 150 ft / 46 m 4,991 ft / 1,521 m 74.22° 88.96° Asphalt 0 ft / 0 m 0 ft / 0 m
16 100 ft / 30 m 4,634 ft / 1,412 m 140.74° 155.48° Asphalt 239 ft / 73 m 0 ft / 0 m
27 150 ft / 46 m 4,991 ft / 1,521 m 254.24° 268.98° Asphalt 190 ft / 58 m 0 ft / 0 m
34 100 ft / 30 m 4,634 ft / 1,412 m 320.75° 335.49° Asphalt 0 ft / 0 m 0 ft / 0 m

KIWI

Details ICAO KIWI
Name Wiscasset
Region United States
Timezone America/New_York (UTC-4.0)
Stats Elevation 74 ft / 23 m (AMSL)
Location 43.961279° -69.712516°
Runways 2
Magnetic Variation 15.567° W

METAR

KIWI 210653Z AUTO 00000KT 10SM CLR 07/07 A3004 RMK AO2 SLP174 T00720067

Decode

TAF

Not found

Destination Runways

ID Width Length Bearing (true) Bearing (mag) Surface Threshold Offset Overrun Length
25 75 ft / 23 m 3,394 ft / 1,034 m 231.62° 247.19° Asphalt 0 ft / 0 m 0 ft / 0 m
25R 49 ft / 15 m 2,107 ft / 642 m 231.31° 246.88° Grass 0 ft / 0 m 0 ft / 0 m
7 75 ft / 23 m 3,394 ft / 1,034 m 51.61° 67.18° Asphalt 0 ft / 0 m 0 ft / 0 m
7L 49 ft / 15 m 2,107 ft / 642 m 51.31° 66.88° Grass 0 ft / 0 m 0 ft / 0 m